When you browse on this site, cookies collect data to enhance your experience and personalize the content and advertising you see.
Visit our Privacy Policy to learn more. By continuing to use the site, you agree to this use of cookies and data.
  • In Hungary
  • List of Countries
  • For 7 days
  • Water Temperature
  • Satellite Maps
  • Weather Map
  • News
  • Weather Widgets
  • user-avatar
    Login

    Hourly Weather Potichok

    Today, 17 July, Wednesday

    Time Temperature Precipitation Wind Pressure Humidity
    00:00 +16°C° 0 mm 2 mps 746 mmHg 91%
    01:00 +16°C° 0 mm 2 mps 746 mmHg 91%
    02:00 +15°C° 0 mm 2 mps 746 mmHg 91%
    03:00 +15°C° 0 mm 2 mps 746 mmHg 91%
    04:00 +15°C° 0 mm 2 mps 746 mmHg 90%
    05:00 +15°C° 0 mm 2 mps 746 mmHg 90%
    06:00 +17°C° 0 mm 2 mps 746 mmHg 82%
    07:00 +19°C° 0 mm 2 mps 746 mmHg 75%
    08:00 +21°C° 0 mm 2 mps 746 mmHg 67%
    09:00 +23°C° 0 mm 2 mps 746 mmHg 61%
    10:00 +24°C° 0 mm 3 mps 746 mmHg 55%
    11:00 +26°C° 0 mm 3 mps 747 mmHg 49%
    12:00 +25°C° 0.2 mm 4 mps 746 mmHg 51%
    13:00 +25°C° 0.2 mm 5 mps 746 mmHg 53%
    14:00 +25°C° 0.2 mm 5 mps 746 mmHg 55%
    15:00 +25°C° 0.1 mm 5 mps 746 mmHg 56%
    16:00 +23°C° 0.1 mm 5 mps 746 mmHg 58%
    17:00 +23°C° 0.1 mm 4 mps 746 mmHg 60%
    18:00 +21°C° 0 mm 4 mps 746 mmHg 65%
    19:00 +19°C° 0 mm 3 mps 746 mmHg 70%
    20:00 +18°C° 0 mm 2 mps 746 mmHg 75%
    21:00 +17°C° 0 mm 2 mps 746 mmHg 76%
    22:00 +17°C° 0 mm 2 mps 746 mmHg 78%
    23:00 +16°C° 0 mm 2 mps 747 mmHg 80%

    Tomorrow, 18 July, Thursday

    Time Temperature Precipitation Wind Pressure Humidity
    00:00 +16°C° 0 mm 2 mps 747 mmHg 82%
    01:00 +15°C° 0 mm 2 mps 747 mmHg 85%
    02:00 +15°C° 0 mm 2 mps 747 mmHg 87%
    03:00 +15°C° 0 mm 2 mps 747 mmHg 89%
    04:00 +15°C° 0 mm 2 mps 747 mmHg 90%
    05:00 +15°C° 0 mm 2 mps 747 mmHg 92%
    06:00 +16°C° 0 mm 3 mps 747 mmHg 84%
    07:00 +18°C° 0 mm 3 mps 747 mmHg 77%
    08:00 +20°C° 0 mm 3 mps 748 mmHg 69%
    09:00 +21°C° 0 mm 4 mps 748 mmHg 63%
    10:00 +22°C° 0 mm 4 mps 748 mmHg 57%
    11:00 +23°C° 0 mm 4 mps 748 mmHg 51%
    12:00 +23°C° 0 mm 4 mps 748 mmHg 50%
    13:00 +23°C° 0 mm 5 mps 748 mmHg 49%
    14:00 +25°C° 0 mm 5 mps 748 mmHg 49%
    15:00 +25°C° 0 mm 5 mps 748 mmHg 50%
    16:00 +23°C° 0 mm 4 mps 748 mmHg 52%
    17:00 +23°C° 0 mm 4 mps 748 mmHg 53%
    18:00 +21°C° 0 mm 4 mps 748 mmHg 59%
    19:00 +20°C° 0 mm 3 mps 749 mmHg 65%
    20:00 +18°C° 0 mm 2 mps 749 mmHg 71%
    21:00 +18°C° 0 mm 2 mps 749 mmHg 74%
    22:00 +17°C° 0 mm 2 mps 750 mmHg 78%
    23:00 +16°C° 0 mm 2 mps 750 mmHg 82%

    Day after tomorrow, 19 July, Friday

    Time Temperature Precipitation Wind Pressure Humidity
    00:00 +16°C° 0 mm 2 mps 750 mmHg 85%
    01:00 +15°C° 0 mm 2 mps 750 mmHg 88%
    02:00 +15°C° 0 mm 2 mps 750 mmHg 91%
    03:00 +15°C° 0 mm 2 mps 751 mmHg 91%
    04:00 +15°C° 0 mm 2 mps 751 mmHg 91%
    05:00 +15°C° 0 mm 2 mps 751 mmHg 91%
    06:00 +17°C° 0 mm 2 mps 751 mmHg 84%
    07:00 +19°C° 0 mm 3 mps 752 mmHg 77%
    08:00 +21°C° 0 mm 3 mps 752 mmHg 69%
    09:00 +22°C° 0 mm 4 mps 752 mmHg 65%
    10:00 +23°C° 0 mm 4 mps 752 mmHg 60%
    11:00 +25°C° 0 mm 4 mps 752 mmHg 56%
    12:00 +26°C° 0 mm 4 mps 752 mmHg 54%
    13:00 +26°C° 0 mm 5 mps 752 mmHg 53%
    14:00 +26°C° 0 mm 5 mps 752 mmHg 51%
    15:00 +26°C° 0 mm 4 mps 752 mmHg 52%
    16:00 +26°C° 0 mm 4 mps 752 mmHg 52%
    17:00 +26°C° 0 mm 4 mps 752 mmHg 52%
    18:00 +24°C° 0.1 mm 3 mps 752 mmHg 59%
    19:00 +21°C° 0.1 mm 2 mps 752 mmHg 66%
    20:00 +20°C° 0.1 mm 1 mps 753 mmHg 73%
    21:00 +20°C° 0 mm 1 mps 753 mmHg 75%
    22:00 +19°C° 0 mm 1 mps 753 mmHg 78%
    23:00 +19°C° 0 mm 1 mps 754 mmHg 80%

    20 July, Saturday

    Time Temperature Precipitation Wind Pressure Humidity
    00:00 +18°C° 0 mm 1 mps 754 mmHg 80%
    01:00 +18°C° 0 mm 1 mps 754 mmHg 80%
    02:00 +18°C° 0 mm 1 mps 754 mmHg 81%
    03:00 +18°C° 0 mm 1 mps 754 mmHg 80%
    04:00 +18°C° 0 mm 1 mps 754 mmHg 79%
    05:00 +18°C° 0 mm 1 mps 754 mmHg 78%
    06:00 +20°C° 0 mm 1 mps 754 mmHg 72%
    07:00 +22°C° 0 mm 1 mps 755 mmHg 66%
    08:00 +24°C° 0 mm 2 mps 755 mmHg 59%
    09:00 +25°C° 0 mm 2 mps 755 mmHg 55%
    10:00 +27°C° 0 mm 2 mps 755 mmHg 50%
    11:00 +28°C° 0 mm 3 mps 755 mmHg 46%
    12:00 +28°C° 0 mm 3 mps 755 mmHg 46%
    13:00 +28°C° 0 mm 3 mps 755 mmHg 45%
    14:00 +28°C° 0 mm 3 mps 755 mmHg 45%
    15:00 +28°C° 0 mm 3 mps 754 mmHg 46%
    16:00 +28°C° 0 mm 2 mps 754 mmHg 46%
    17:00 +28°C° 0 mm 2 mps 754 mmHg 47%
    18:00 +27°C° 0 mm 1 mps 754 mmHg 52%
    19:00 +25°C° 0 mm 1 mps 754 mmHg 57%
    20:00 +23°C° 0 mm 1 mps 755 mmHg 63%
    21:00 +22°C° 0.1 mm 1 mps 755 mmHg 65%
    22:00 +21°C° 0.1 mm 1 mps 755 mmHg 67%
    23:00 +21°C° 0.1 mm 1 mps 755 mmHg 69%

    21 July, Sunday

    Time Temperature Precipitation Wind Pressure Humidity
    00:00 +20°C° 0.2 mm 1 mps 755 mmHg 72%
    01:00 +20°C° 0.2 mm 1 mps 755 mmHg 74%
    02:00 +19°C° 0.2 mm 1 mps 755 mmHg 77%
    03:00 +19°C° 0.1 mm 1 mps 755 mmHg 78%
    04:00 +19°C° 0.1 mm 1 mps 755 mmHg 79%
    05:00 +19°C° 0.1 mm 1 mps 755 mmHg 80%
    06:00 +21°C° 0 mm 1 mps 755 mmHg 75%
    07:00 +23°C° 0 mm 1 mps 755 mmHg 70%
    08:00 +25°C° 0 mm 2 mps 755 mmHg 65%
    09:00 +26°C° 0 mm 2 mps 755 mmHg 60%
    10:00 +28°C° 0 mm 2 mps 755 mmHg 55%
    11:00 +29°C° 0 mm 2 mps 755 mmHg 50%
    12:00 +29°C° 0 mm 2 mps 755 mmHg 49%
    13:00 +30°C° 0 mm 2 mps 754 mmHg 49%
    14:00 +30°C° 0 mm 2 mps 754 mmHg 48%
    15:00 +30°C° 0 mm 2 mps 754 mmHg 49%
    16:00 +30°C° 0 mm 2 mps 754 mmHg 50%
    17:00 +30°C° 0 mm 1 mps 754 mmHg 51%
    18:00 +28°C° 0 mm 2 mps 754 mmHg 58%
    19:00 +26°C° 0 mm 2 mps 754 mmHg 65%
    20:00 +24°C° 0 mm 2 mps 754 mmHg 72%
    21:00 +23°C° 0 mm 2 mps 754 mmHg 75%
    22:00 +22°C° 0 mm 1 mps 754 mmHg 77%
    23:00 +22°C° 0 mm 1 mps 755 mmHg 79%

    22 July, Monday

    Time Temperature Precipitation Wind Pressure Humidity
    00:00 +21°C° 0 mm 1 mps 755 mmHg 81%
    01:00 +21°C° 0 mm 1 mps 755 mmHg 82%
    02:00 +20°C° 0 mm 1 mps 754 mmHg 83%
    03:00 +21°C° 0 mm 1 mps 755 mmHg 83%
    04:00 +21°C° 0 mm 1 mps 755 mmHg 82%
    05:00 +21°C° 0 mm 1 mps 755 mmHg 82%
    06:00 +23°C° 0 mm 1 mps 755 mmHg 74%
    07:00 +23°C° 0 mm 0 mps 755 mmHg 67%
    08:00 +25°C° 0 mm 0 mps 755 mmHg 60%
    09:00 +28°C° 0 mm 1 mps 755 mmHg 54%
    10:00 +29°C° 0 mm 1 mps 755 mmHg 49%
    11:00 +31°C° 0 mm 1 mps 755 mmHg 44%
    12:00 +31°C° 0 mm 1 mps 754 mmHg 44%
    13:00 +31°C° 0 mm 1 mps 754 mmHg 44%
    14:00 +31°C° 0 mm 1 mps 754 mmHg 43%
    15:00 +31°C° 0 mm 1 mps 753 mmHg 44%
    16:00 +31°C° 0 mm 1 mps 753 mmHg 45%
    17:00 +31°C° 0 mm 1 mps 753 mmHg 46%
    18:00 +29°C° 0 mm 1 mps 753 mmHg 51%
    19:00 +27°C° 0 mm 2 mps 753 mmHg 56%
    20:00 +25°C° 0 mm 3 mps 753 mmHg 61%
    21:00 +24°C° 0.4 mm 3 mps 753 mmHg 69%
    22:00 +22°C° 0.4 mm 3 mps 752 mmHg 76%
    23:00 +21°C° 0.4 mm 3 mps 752 mmHg 83%
    Show more